Flag for Canada Weather past 2 weeks in Surrey, British Columbia, Canada

Now
70 °F

Mild.


Feels Like: 76 °F
Forecast: 57 / 83 °F
Wind: 3 mph from East

Location: P. Meadows Coastal Station

Current Time: Aug 1, 2015 at 9:48:20 AM

Latest Report: Aug 1, 2015 at 9:00 AM


Visibility: N/A

Pressure: 30.03 "Hg

Humidity: 62%

Dew point: 56 °F

Location of SurreyLocation

Historic Weather in Surrey — Graph

°F

Surrey temperature yesterday

Maximum temperature yesterday: 90 °F (at 4:00 PM)
Minimum temperature yesterday: 56 °F (at 6:00 AM)
Average temperature yesterday: 74 °F

Past Weeks' High & Low Weather Summary

 TemperatureHumidityPressure
High91 °F (Jul 18, 5:00 PM)98% (Jul 30, 5:00 AM)30.29 "Hg (Jul 30, 5:00 AM)
Low53 °F (Jul 23, 5:00 AM)20% (Jul 29, 5:00 PM)29.86 "Hg (Jul 22, 8:00 PM)
Average68 °F66%30.03 "Hg
* Reported Jul 17 8:00 AM — Aug 1 8:00 AM, Surrey, Weather by CustomWeather, © 2015

Note: Actual official high and low records may vary slightly from our data, if they occured in-between our weather recording intervals... More about our weather records

Advertising

Surrey weather history for previous 24 hours

 ConditionsComfort  
Time TempWeatherWind HumidityBarometerVisibility
8:00 AM
Sat, Aug 1
66 °FMild.1 mph72%30.03 "HgN/A
7:00 AM61 °FCool.No wind80%30.02 "HgN/A
6:00 AM56 °FCool.No wind89%30.00 "HgN/A
5:00 AM57 °FCool.No wind88%29.99 "HgN/A
4:00 AM59 °FCool.2 mph82%29.99 "HgN/A
3:00 AM60 °FCool.1 mph82%29.98 "HgN/A
2:00 AM60 °FCool.1 mph88%29.98 "HgN/A
1:00 AM63 °FMild.No wind84%29.99 "HgN/A
12:00 AM65 °FMild.1 mph74%29.98 "HgN/A
11:00 PM
Fri, Jul 31
66 °FMild.1 mph75%29.98 "HgN/A
10:00 PM70 °FMild.1 mph63%29.97 "HgN/A
9:00 PM75 °FMild.1 mph55%29.96 "HgN/A
8:00 PM82 °FWarm.2 mph42%29.96 "HgN/A
7:00 PM87 °FPleasantly warm.3 mph29%29.97 "HgN/A
6:00 PM89 °FHot.6 mph28%29.98 "HgN/A
5:00 PM90 °FHot.5 mph29%30.00 "HgN/A
4:00 PM90 °FHot.7 mph29%30.02 "HgN/A
3:00 PM87 °FPleasantly warm.3 mph30%30.03 "HgN/A
2:00 PM88 °FHot.2 mph30%30.05 "HgN/A
1:00 PM86 °FPleasantly warm.2 mph29%30.06 "HgN/A
12:00 PM83 °FPleasantly warm.2 mph31%30.08 "HgN/A
11:00 AM79 °FPleasantly warm.1 mph35%30.09 "HgN/A
10:00 AM76 °FMild.2 mph43%30.10 "HgN/A
9:00 AM72 °FMild.1 mph52%30.10 "HgN/A
Weather by CustomWeather, © 2015

See weather overviewHow to use our weather pages